• en Suisse
  • Liste des pays
  • À 7 jours
  • Température de l'eau
  • Carte satellitaire
  • Carte météo
  • Widgets météo
  • user-avatar
    Se connecter

    Météo par heure à Serhiivs'ke

    Ce jour, 17 Août, Vendredi

    Heure Température Précipitation Vent Pression Humidité
    00:00 +27°C° 0 mm 4 m/s 750 mmHg 50%
    01:00 +26°C° 0 mm 4 m/s 750 mmHg 51%
    02:00 +26°C° 0 mm 4 m/s 750 mmHg 51%
    03:00 +25°C° 0 mm 4 m/s 750 mmHg 51%
    04:00 +25°C° 0 mm 4 m/s 750 mmHg 52%
    05:00 +24°C° 0 mm 3 m/s 750 mmHg 53%
    06:00 +26°C° 0 mm 4 m/s 750 mmHg 50%
    07:00 +27°C° 0 mm 4 m/s 750 mmHg 47%
    08:00 +28°C° 0 mm 4 m/s 751 mmHg 44%
    09:00 +32°C° 0 mm 4 m/s 751 mmHg 38%
    10:00 +34°C° 0 mm 4 m/s 751 mmHg 33%
    11:00 +36°C° 0 mm 4 m/s 751 mmHg 27%
    12:00 +36°C° 0 mm 4 m/s 751 mmHg 26%
    13:00 +36°C° 0 mm 4 m/s 750 mmHg 24%
    14:00 +37°C° 0 mm 4 m/s 750 mmHg 22%
    15:00 +36°C° 0 mm 4 m/s 750 mmHg 25%
    16:00 +35°C° 0 mm 4 m/s 750 mmHg 27%
    17:00 +34°C° 0 mm 4 m/s 750 mmHg 30%
    18:00 +33°C° 0 mm 4 m/s 750 mmHg 35%
    19:00 +30°C° 0 mm 4 m/s 750 mmHg 40%
    20:00 +29°C° 0 mm 5 m/s 750 mmHg 45%
    21:00 +28°C° 0 mm 4 m/s 750 mmHg 46%
    22:00 +27°C° 0 mm 4 m/s 750 mmHg 47%
    23:00 +27°C° 0 mm 4 m/s 750 mmHg 49%

    Demain, 18 Août, Samedi

    Heure Température Précipitation Vent Pression Humidité
    00:00 +26°C° 0 mm 4 m/s 750 mmHg 49%
    01:00 +26°C° 0 mm 3 m/s 750 mmHg 49%
    02:00 +25°C° 0 mm 3 m/s 750 mmHg 50%
    03:00 +25°C° 0 mm 3 m/s 750 mmHg 52%
    04:00 +24°C° 0 mm 3 m/s 750 mmHg 54%
    05:00 +24°C° 0 mm 3 m/s 751 mmHg 57%
    06:00 +25°C° 0 mm 3 m/s 751 mmHg 54%
    07:00 +27°C° 0 mm 3 m/s 751 mmHg 52%
    08:00 +29°C° 0 mm 4 m/s 751 mmHg 50%
    09:00 +30°C° 0 mm 4 m/s 751 mmHg 44%
    10:00 +33°C° 0 mm 4 m/s 751 mmHg 38%
    11:00 +35°C° 0 mm 4 m/s 751 mmHg 33%
    12:00 +35°C° 0 mm 4 m/s 751 mmHg 32%
    13:00 +35°C° 0 mm 4 m/s 751 mmHg 32%
    14:00 +35°C° 0 mm 4 m/s 751 mmHg 32%
    15:00 +34°C° 0 mm 4 m/s 751 mmHg 34%
    16:00 +34°C° 0 mm 4 m/s 751 mmHg 35%
    17:00 +33°C° 0 mm 4 m/s 751 mmHg 37%
    18:00 +32°C° 0 mm 4 m/s 751 mmHg 41%
    19:00 +29°C° 0 mm 4 m/s 751 mmHg 46%
    20:00 +27°C° 0 mm 3 m/s 751 mmHg 50%
    21:00 +27°C° 0,1 mm 3 m/s 751 mmHg 53%
    22:00 +26°C° 0,1 mm 3 m/s 751 mmHg 56%
    23:00 +25°C° 0,1 mm 3 m/s 752 mmHg 58%

    Après-demain, 19 Août, Dimanche

    Heure Température Précipitation Vent Pression Humidité
    00:00 +24°C° 0 mm 3 m/s 752 mmHg 60%
    01:00 +24°C° 0 mm 3 m/s 752 mmHg 62%
    02:00 +22°C° 0 mm 3 m/s 752 mmHg 64%
    03:00 +22°C° 0 mm 3 m/s 752 mmHg 65%
    04:00 +21°C° 0 mm 3 m/s 752 mmHg 66%
    05:00 +21°C° 0 mm 3 m/s 752 mmHg 67%
    06:00 +22°C° 0 mm 3 m/s 752 mmHg 62%
    07:00 +25°C° 0 mm 3 m/s 752 mmHg 57%
    08:00 +27°C° 0 mm 4 m/s 752 mmHg 52%
    09:00 +28°C° 0 mm 4 m/s 752 mmHg 47%
    10:00 +30°C° 0 mm 4 m/s 752 mmHg 42%
    11:00 +32°C° 0 mm 4 m/s 752 mmHg 37%
    12:00 +33°C° 0 mm 4 m/s 752 mmHg 34%
    13:00 +33°C° 0 mm 3 m/s 751 mmHg 32%
    14:00 +34°C° 0 mm 3 m/s 751 mmHg 29%
    15:00 +34°C° 0 mm 3 m/s 751 mmHg 29%
    16:00 +33°C° 0 mm 4 m/s 751 mmHg 29%
    17:00 +33°C° 0 mm 4 m/s 751 mmHg 30%
    18:00 +30°C° 0 mm 4 m/s 751 mmHg 33%
    19:00 +28°C° 0 mm 3 m/s 751 mmHg 36%
    20:00 +26°C° 0 mm 3 m/s 751 mmHg 39%
    21:00 +25°C° 0 mm 3 m/s 751 mmHg 38%
    22:00 +25°C° 0 mm 3 m/s 751 mmHg 38%
    23:00 +24°C° 0 mm 3 m/s 751 mmHg 38%

    20 Août, Lundi

    Heure Température Précipitation Vent Pression Humidité
    00:00 +22°C° 0 mm 3 m/s 751 mmHg 38%
    01:00 +21°C° 0 mm 3 m/s 751 mmHg 39%
    02:00 +21°C° 0 mm 3 m/s 751 mmHg 40%
    03:00 +20°C° 0 mm 3 m/s 751 mmHg 41%
    04:00 +20°C° 0 mm 3 m/s 751 mmHg 42%
    05:00 +19°C° 0 mm 2 m/s 751 mmHg 43%
    06:00 +21°C° 0 mm 3 m/s 751 mmHg 41%
    07:00 +24°C° 0 mm 3 m/s 752 mmHg 39%
    08:00 +25°C° 0 mm 3 m/s 752 mmHg 37%
    09:00 +27°C° 0 mm 3 m/s 752 mmHg 33%
    10:00 +28°C° 0 mm 3 m/s 752 mmHg 29%
    11:00 +30°C° 0 mm 3 m/s 752 mmHg 26%
    12:00 +31°C° 0 mm 3 m/s 752 mmHg 24%
    13:00 +31°C° 0 mm 3 m/s 752 mmHg 22%
    14:00 +32°C° 0 mm 2 m/s 751 mmHg 21%
    15:00 +32°C° 0 mm 2 m/s 751 mmHg 21%
    16:00 +31°C° 0 mm 2 m/s 751 mmHg 21%
    17:00 +31°C° 0 mm 2 m/s 751 mmHg 21%
    18:00 +29°C° 0 mm 2 m/s 751 mmHg 24%
    19:00 +27°C° 0 mm 2 m/s 751 mmHg 27%
    20:00 +25°C° 0 mm 2 m/s 752 mmHg 30%
    21:00 +24°C° 0 mm 2 m/s 752 mmHg 31%
    22:00 +24°C° 0 mm 2 m/s 752 mmHg 32%
    23:00 +23°C° 0 mm 2 m/s 752 mmHg 33%

    21 Août, Mardi

    Heure Température Précipitation Vent Pression Humidité
    00:00 +22°C° 0 mm 1 m/s 752 mmHg 34%
    01:00 +22°C° 0 mm 1 m/s 752 mmHg 35%
    02:00 +21°C° 0 mm 1 m/s 752 mmHg 35%
    03:00 +21°C° 0 mm 1 m/s 752 mmHg 36%
    04:00 +21°C° 0 mm 1 m/s 752 mmHg 37%
    05:00 +20°C° 0 mm 1 m/s 752 mmHg 38%
    06:00 +22°C° 0 mm 1 m/s 752 mmHg 35%
    07:00 +24°C° 0 mm 1 m/s 753 mmHg 32%
    08:00 +27°C° 0 mm 1 m/s 753 mmHg 29%
    09:00 +28°C° 0 mm 1 m/s 753 mmHg 27%
    10:00 +30°C° 0 mm 1 m/s 753 mmHg 24%
    11:00 +32°C° 0 mm 1 m/s 753 mmHg 21%
    12:00 +32°C° 0 mm 1 m/s 753 mmHg 21%
    13:00 +33°C° 0 mm 1 m/s 752 mmHg 20%
    14:00 +33°C° 0 mm 1 m/s 752 mmHg 20%
    15:00 +33°C° 0 mm 1 m/s 752 mmHg 20%
    16:00 +33°C° 0 mm 1 m/s 752 mmHg 21%
    17:00 +34°C° 0 mm 2 m/s 752 mmHg 22%
    18:00 +31°C° 0 mm 2 m/s 752 mmHg 25%
    19:00 +29°C° 0 mm 2 m/s 752 mmHg 28%
    20:00 +27°C° 0 mm 2 m/s 752 mmHg 31%
    21:00 +26°C° 0 mm 2 m/s 753 mmHg 32%
    22:00 +25°C° 0 mm 2 m/s 753 mmHg 33%
    23:00 +25°C° 0 mm 2 m/s 753 mmHg 34%

    22 Août, Mercredi

    Heure Température Précipitation Vent Pression Humidité
    00:00 +24°C° 0 mm 1 m/s 753 mmHg 34%
    01:00 +24°C° 0 mm 1 m/s 753 mmHg 35%
    02:00 +23°C° 0 mm 1 m/s 753 mmHg 36%
    03:00 +23°C° 0 mm 1 m/s 753 mmHg 36%
    04:00 +22°C° 0 mm 1 m/s 753 mmHg 36%
    05:00 +22°C° 0 mm 1 m/s 753 mmHg 37%
    06:00 +24°C° 0 mm 1 m/s 753 mmHg 34%
    07:00 +26°C° 0 mm 1 m/s 754 mmHg 32%
    08:00 +28°C° 0 mm 1 m/s 754 mmHg 29%
    09:00 +30°C° 0 mm 1 m/s 754 mmHg 28%
    10:00 +31°C° 0 mm 1 m/s 754 mmHg 26%
    11:00 +33°C° 0 mm 1 m/s 754 mmHg 24%
    12:00 +33°C° 0 mm 1 m/s 753 mmHg 24%
    13:00 +35°C° 0 mm 2 m/s 753 mmHg 24%
    14:00 +35°C° 0 mm 2 m/s 753 mmHg 23%
    15:00 +35°C° 0 mm 2 m/s 753 mmHg 24%
    16:00 +35°C° 0 mm 2 m/s 752 mmHg 24%
    17:00 +35°C° 0 mm 2 m/s 752 mmHg 25%
    18:00 +32°C° 0 mm 2 m/s 752 mmHg 29%
    19:00 +30°C° 0 mm 2 m/s 752 mmHg 32%
    20:00 +28°C° 0 mm 2 m/s 752 mmHg 36%
    21:00 +27°C° 0 mm 2 m/s 753 mmHg 38%
    22:00 +26°C° 0 mm 2 m/s 753 mmHg 40%
    23:00 +26°C° 0 mm 2 m/s 753 mmHg 42%
    Voir plus